Year,Month,Day,Hour,Minute,Value (Times are PST for temperature in C)
2009,06,25,10,45,16.70
2009,06,25,10,46,16.80
2009,06,25,10,47,16.90
2009,06,25,10,48,16.90
2009,06,25,10,49,16.90
2009,06,25,10,50,16.90
2009,06,25,10,51,16.90
2009,06,25,10,52,16.90
2009,06,25,10,53,16.90
2009,06,25,10,54,16.90
2009,06,25,10,55,16.90
2009,06,25,10,56,16.90
2009,06,25,10,57,16.80
2009,06,25,10,58,16.80
2009,06,25,10,59,16.80
2009,06,25,11,00,16.80
2009,06,25,11,01,16.80
2009,06,25,11,02,16.70
2009,06,25,11,03,16.70
2009,06,25,11,04,16.70
2009,06,25,11,05,16.70
2009,06,25,11,06,16.70
2009,06,25,11,07,16.70
2009,06,25,11,08,16.80
2009,06,25,11,09,16.80
2009,06,25,11,10,16.80
2009,06,25,11,11,16.80
2009,06,25,11,12,16.80
2009,06,25,11,13,16.70
2009,06,25,11,14,16.70
2009,06,25,11,15,16.70
2009,06,25,11,16,16.80
2009,06,25,11,17,16.70
2009,06,25,11,18,16.70
2009,06,25,11,19,16.70
2009,06,25,11,20,16.80
2009,06,25,11,21,16.80
2009,06,25,11,22,16.70
2009,06,25,11,23,16.70
2009,06,25,11,24,16.70
2009,06,25,11,25,16.80
2009,06,25,11,26,16.80
2009,06,25,11,27,16.80
2009,06,25,11,28,16.80
2009,06,25,11,29,16.80
2009,06,25,11,30,16.70
2009,06,25,11,31,16.70
2009,06,25,11,32,16.80
2009,06,25,11,33,16.90
2009,06,25,11,34,16.90
2009,06,25,11,35,16.90
2009,06,25,11,36,16.90
2009,06,25,11,37,16.70
2009,06,25,11,38,16.60
2009,06,25,11,39,16.60
2009,06,25,11,40,16.60
2009,06,25,11,41,16.70
2009,06,25,11,42,16.70
2009,06,25,11,43,16.80
2009,06,25,11,44,16.80
2009,06,25,11,45,16.80
2009,06,25,11,46,16.80
2009,06,25,11,47,16.80
2009,06,25,11,48,16.90
2009,06,25,11,49,16.90
2009,06,25,11,50,17.00
2009,06,25,11,51,16.90
2009,06,25,11,52,17.00
2009,06,25,11,53,17.10
2009,06,25,11,54,17.10
2009,06,25,11,55,17.20
2009,06,25,11,56,17.20
2009,06,25,11,57,17.10
2009,06,25,11,58,17.10
2009,06,25,11,59,17.00
2009,06,25,12,00,17.00
2009,06,25,12,01,16.90
2009,06,25,12,02,17.00
2009,06,25,12,03,17.10
2009,06,25,12,04,17.30
2009,06,25,12,05,17.50
2009,06,25,12,06,17.60
2009,06,25,12,07,17.70
2009,06,25,12,08,17.80
2009,06,25,12,09,17.80
2009,06,25,12,10,17.80
2009,06,25,12,11,17.80
2009,06,25,12,12,17.90
2009,06,25,12,13,18.00
2009,06,25,12,14,18.10
2009,06,25,12,15,18.00
2009,06,25,12,16,18.10
2009,06,25,12,17,18.20
2009,06,25,12,18,18.20
2009,06,25,12,19,18.10
2009,06,25,12,20,17.90
2009,06,25,12,21,17.80
2009,06,25,12,22,18.00
2009,06,25,12,23,18.00
2009,06,25,12,24,18.00
2009,06,25,12,25,18.00
2009,06,25,12,26,17.90
2009,06,25,12,27,18.00
2009,06,25,12,28,18.00
2009,06,25,12,29,18.10
2009,06,25,12,30,18.30
2009,06,25,12,31,18.30
2009,06,25,12,32,18.30
2009,06,25,12,33,18.30
2009,06,25,12,34,18.30
2009,06,25,12,35,18.40
2009,06,25,12,36,18.60
2009,06,25,12,37,18.60
2009,06,25,12,38,18.60
2009,06,25,12,39,18.50
2009,06,25,12,40,18.40
2009,06,25,12,41,18.50
2009,06,25,12,42,18.40
2009,06,25,12,43,18.50
2009,06,25,12,44,18.60
2009,06,25,12,45,18.70
2009,06,25,12,46,18.80
2009,06,25,12,47,18.90
2009,06,25,12,48,18.80
2009,06,25,12,49,18.70
2009,06,25,12,50,18.60
2009,06,25,12,51,18.40
2009,06,25,12,52,18.30
2009,06,25,12,53,18.20
2009,06,25,12,54,18.10
2009,06,25,12,55,18.00
2009,06,25,12,56,17.90
2009,06,25,12,57,17.80
2009,06,25,12,58,17.70
2009,06,25,12,59,17.70
2009,06,25,13,00,17.70
2009,06,25,13,01,17.80
2009,06,25,13,02,17.80
2009,06,25,13,03,17.90
2009,06,25,13,04,17.80
2009,06,25,13,05,17.80
2009,06,25,13,06,17.70
2009,06,25,13,07,17.70
2009,06,25,13,08,17.50
2009,06,25,13,09,17.50
2009,06,25,13,10,17.50
2009,06,25,13,11,17.50
2009,06,25,13,12,17.60
2009,06,25,13,13,17.60
2009,06,25,13,14,17.70
2009,06,25,13,15,17.70
2009,06,25,13,16,17.70
2009,06,25,13,17,17.70
2009,06,25,13,18,17.70
2009,06,25,13,19,17.70
2009,06,25,13,20,17.70
2009,06,25,13,21,17.60
2009,06,25,13,22,17.60
2009,06,25,13,23,17.60
2009,06,25,13,24,17.60
2009,06,25,13,25,17.60
2009,06,25,13,26,17.60
2009,06,25,13,27,17.60
2009,06,25,13,28,17.50
2009,06,25,13,29,17.40
2009,06,25,13,30,17.40
2009,06,25,13,31,17.40
2009,06,25,13,32,17.50
2009,06,25,13,33,17.50
2009,06,25,13,34,17.50
2009,06,25,13,35,17.40
2009,06,25,13,36,17.30
2009,06,25,13,37,17.30
2009,06,25,13,38,17.20
2009,06,25,13,39,17.20
2009,06,25,13,40,17.10
2009,06,25,13,41,17.10
2009,06,25,13,42,17.10
2009,06,25,13,43,17.10
2009,06,25,13,44,17.20
2009,06,25,13,45,17.20
2009,06,25,13,46,17.30
2009,06,25,13,47,17.30
2009,06,25,13,48,17.30
2009,06,25,13,49,17.30
2009,06,25,13,50,17.30
2009,06,25,13,51,17.30
2009,06,25,13,52,17.30
2009,06,25,13,53,17.30
2009,06,25,13,54,17.20
2009,06,25,13,55,17.20
2009,06,25,13,56,17.20
2009,06,25,13,57,17.30
2009,06,25,13,58,17.40
2009,06,25,13,59,17.40
2009,06,25,14,00,17.50
2009,06,25,14,01,17.70
2009,06,25,14,02,17.80
2009,06,25,14,03,18.00
2009,06,25,14,04,18.00
2009,06,25,14,05,18.00
2009,06,25,14,06,18.10
2009,06,25,14,07,18.20
2009,06,25,14,08,18.30
2009,06,25,14,09,18.30
2009,06,25,14,10,18.30
2009,06,25,14,11,18.40
2009,06,25,14,12,18.50
2009,06,25,14,13,18.60
2009,06,25,14,14,18.60
2009,06,25,14,15,18.60
2009,06,25,14,16,18.60
2009,06,25,14,17,18.60
2009,06,25,14,18,18.70
2009,06,25,14,19,18.60
2009,06,25,14,20,18.60
2009,06,25,14,21,18.60
2009,06,25,14,22,18.60
2009,06,25,14,23,18.70
2009,06,25,14,24,18.80
2009,06,25,14,25,19.00
2009,06,25,14,26,19.10
2009,06,25,14,27,19.20
2009,06,25,14,28,19.00
2009,06,25,14,29,18.80
2009,06,25,14,30,18.60
2009,06,25,14,31,18.50
2009,06,25,14,32,18.40
2009,06,25,14,33,18.30
2009,06,25,14,34,18.30
2009,06,25,14,35,18.30
2009,06,25,14,36,18.40
2009,06,25,14,37,18.50
2009,06,25,14,38,18.60
2009,06,25,14,39,18.80
2009,06,25,14,40,18.90
2009,06,25,14,41,19.00
2009,06,25,14,42,19.30
2009,06,25,14,43,19.30
2009,06,25,14,44,19.20
2009,06,25,14,45,19.10
2009,06,25,14,46,19.00
2009,06,25,14,47,18.80
2009,06,25,14,48,18.80
2009,06,25,14,49,18.90
2009,06,25,14,50,18.90
2009,06,25,14,51,18.90
2009,06,25,14,52,19.00
2009,06,25,14,53,19.10
2009,06,25,14,54,19.10
2009,06,25,14,55,19.20
2009,06,25,14,56,19.20
2009,06,25,14,57,19.20
2009,06,25,14,58,19.20
2009,06,25,14,59,19.30
2009,06,25,15,00,19.30
2009,06,25,15,01,19.20
2009,06,25,15,02,19.20
2009,06,25,15,03,19.20
2009,06,25,15,04,19.20
2009,06,25,15,05,19.20
2009,06,25,15,06,19.20
2009,06,25,15,07,19.10
2009,06,25,15,08,19.10
2009,06,25,15,09,19.20
2009,06,25,15,10,19.20
2009,06,25,15,11,19.30
2009,06,25,15,12,19.30
2009,06,25,15,13,19.20
2009,06,25,15,14,19.20
2009,06,25,15,15,19.20
2009,06,25,15,16,19.20
2009,06,25,15,17,19.10
2009,06,25,15,18,19.00
2009,06,25,15,19,18.90
2009,06,25,15,20,18.80
2009,06,25,15,21,18.80
2009,06,25,15,22,18.70
2009,06,25,15,23,18.70
2009,06,25,15,24,18.70
2009,06,25,15,25,18.70
2009,06,25,15,26,18.80
2009,06,25,15,27,18.90
2009,06,25,15,28,19.00
2009,06,25,15,29,19.10
2009,06,25,15,30,19.20
2009,06,25,15,31,19.10
2009,06,25,15,32,19.20
2009,06,25,15,33,19.30
2009,06,25,15,34,19.50
2009,06,25,15,35,19.70
2009,06,25,15,36,19.60
2009,06,25,15,37,19.60
2009,06,25,15,38,19.60
2009,06,25,15,39,19.50
2009,06,25,15,40,19.40
2009,06,25,15,41,19.40
2009,06,25,15,42,19.30
2009,06,25,15,43,19.20
2009,06,25,15,44,19.20
2009,06,25,15,45,19.20
2009,06,25,15,46,19.20
2009,06,25,15,47,19.30
2009,06,25,15,48,19.20
2009,06,25,15,49,19.10
2009,06,25,15,50,19.10
2009,06,25,15,51,19.20
2009,06,25,15,52,19.30
2009,06,25,15,53,19.40
2009,06,25,15,54,19.30
2009,06,25,15,55,19.10
2009,06,25,15,56,19.10
2009,06,25,15,57,19.00
2009,06,25,15,58,18.90
2009,06,25,15,59,18.90
2009,06,25,16,00,18.90
2009,06,25,16,01,18.80
2009,06,25,16,02,18.80
2009,06,25,16,03,18.80
2009,06,25,16,04,18.80
2009,06,25,16,05,18.90
2009,06,25,16,06,18.90
2009,06,25,16,07,18.90
2009,06,25,16,08,18.90
2009,06,25,16,09,19.00
2009,06,25,16,10,19.20
2009,06,25,16,11,19.20
2009,06,25,16,12,19.10
2009,06,25,16,13,19.10
2009,06,25,16,14,19.00
2009,06,25,16,15,18.90
2009,06,25,16,16,18.80
2009,06,25,16,17,18.70
2009,06,25,16,18,18.70
2009,06,25,16,19,18.60
2009,06,25,16,20,18.60
2009,06,25,16,21,18.50
2009,06,25,16,22,18.40
2009,06,25,16,23,18.50
2009,06,25,16,24,18.60
2009,06,25,16,25,18.70
2009,06,25,16,26,18.80
2009,06,25,16,27,18.80
2009,06,25,16,28,19.00
2009,06,25,16,29,19.20
2009,06,25,16,30,19.20
2009,06,25,16,31,19.00
2009,06,25,16,32,18.90
2009,06,25,16,33,18.60
2009,06,25,16,34,18.60
2009,06,25,16,35,18.70
2009,06,25,16,36,18.80
2009,06,25,16,37,18.70
2009,06,25,16,38,18.40
2009,06,25,16,39,18.30
2009,06,25,16,40,18.40
2009,06,25,16,41,18.50
2009,06,25,16,42,18.60
2009,06,25,16,43,18.60
2009,06,25,16,44,18.60
2009,06,25,16,45,18.70
2009,06,25,16,46,18.70
2009,06,25,16,47,18.70
2009,06,25,16,48,18.70
2009,06,25,16,49,18.70
2009,06,25,16,50,18.70
2009,06,25,16,51,18.80
2009,06,25,16,52,18.90
2009,06,25,16,53,18.90
2009,06,25,16,54,18.90
2009,06,25,16,55,19.00
2009,06,25,16,56,19.00
2009,06,25,16,57,19.00
2009,06,25,16,58,18.90
2009,06,25,16,59,18.80
2009,06,25,17,00,18.80
2009,06,25,17,01,18.70
2009,06,25,17,02,18.80
2009,06,25,17,03,18.80
2009,06,25,17,04,18.90
2009,06,25,17,05,18.90
2009,06,25,17,06,19.00
2009,06,25,17,07,19.00
2009,06,25,17,08,19.00
2009,06,25,17,09,19.00
2009,06,25,17,10,19.00
2009,06,25,17,11,19.00
2009,06,25,17,12,19.00
2009,06,25,17,13,18.90
2009,06,25,17,14,18.80
2009,06,25,17,15,18.80
2009,06,25,17,16,18.80
2009,06,25,17,17,18.80
2009,06,25,17,18,18.80
2009,06,25,17,19,18.70
2009,06,25,17,20,18.70
2009,06,25,17,21,18.70
2009,06,25,17,22,18.70
2009,06,25,17,23,18.80
2009,06,25,17,24,18.80
2009,06,25,17,25,18.90
2009,06,25,17,26,18.90
2009,06,25,17,27,18.90
2009,06,25,17,28,18.80
2009,06,25,17,29,18.70
2009,06,25,17,30,18.70
2009,06,25,17,31,18.70
2009,06,25,17,32,18.80
2009,06,25,17,33,18.80
2009,06,25,17,34,18.70
2009,06,25,17,35,18.70
2009,06,25,17,36,18.60
2009,06,25,17,37,18.50
2009,06,25,17,38,18.40
2009,06,25,17,39,18.40
2009,06,25,17,40,18.40
2009,06,25,17,41,18.40
2009,06,25,17,42,18.40
2009,06,25,17,43,18.50
2009,06,25,17,44,18.60
2009,06,25,17,45,18.70
2009,06,25,17,46,18.60
2009,06,25,17,47,18.50
2009,06,25,17,48,18.30
2009,06,25,17,49,18.20
2009,06,25,17,50,18.10
2009,06,25,17,51,18.00
2009,06,25,17,52,17.90
2009,06,25,17,53,17.90
2009,06,25,17,54,18.00
2009,06,25,17,55,18.00
2009,06,25,17,56,17.90
2009,06,25,17,57,17.80
2009,06,25,17,58,17.60
2009,06,25,17,59,17.40
2009,06,25,18,00,17.30
2009,06,25,18,01,17.30
2009,06,25,18,02,17.30
2009,06,25,18,03,17.20
2009,06,25,18,04,17.20
2009,06,25,18,05,17.20
2009,06,25,18,06,17.20
2009,06,25,18,07,17.10
2009,06,25,18,08,17.10
2009,06,25,18,09,17.10
2009,06,25,18,10,17.00
2009,06,25,18,11,16.90
2009,06,25,18,12,16.90
2009,06,25,18,13,16.90
2009,06,25,18,14,16.90
2009,06,25,18,15,16.80
2009,06,25,18,16,16.70
2009,06,25,18,17,16.60
2009,06,25,18,18,16.50
2009,06,25,18,19,16.40
2009,06,25,18,20,16.40
2009,06,25,18,21,16.50
2009,06,25,18,22,16.60
2009,06,25,18,23,16.60
2009,06,25,18,24,16.50
2009,06,25,18,25,16.50
2009,06,25,18,26,16.50
2009,06,25,18,27,16.40
2009,06,25,18,28,16.30
2009,06,25,18,29,16.30
2009,06,25,18,30,16.30
2009,06,25,18,31,16.30
2009,06,25,18,32,16.30
2009,06,25,18,33,16.40
2009,06,25,18,34,16.40
2009,06,25,18,35,16.50
2009,06,25,18,36,16.50
2009,06,25,18,37,16.50
2009,06,25,18,38,16.50
2009,06,25,18,39,16.30
2009,06,25,18,40,16.20
2009,06,25,18,41,16.20
2009,06,25,18,42,16.20
2009,06,25,18,43,16.20
2009,06,25,18,44,16.20
2009,06,25,18,45,16.20
2009,06,25,18,46,16.20
2009,06,25,18,47,16.20
2009,06,25,18,48,16.30
2009,06,25,18,49,16.30
2009,06,25,18,50,16.20
2009,06,25,18,51,16.10
2009,06,25,18,52,16.00
2009,06,25,18,53,16.00
2009,06,25,18,54,16.00
2009,06,25,18,55,15.90
2009,06,25,18,56,15.90
2009,06,25,18,57,15.90
2009,06,25,18,58,15.80
2009,06,25,18,59,15.80
2009,06,25,19,00,15.80
2009,06,25,19,01,15.80
2009,06,25,19,02,15.90
2009,06,25,19,03,15.90
2009,06,25,19,04,15.90
2009,06,25,19,05,15.90
2009,06,25,19,06,15.90
2009,06,25,19,07,15.90
2009,06,25,19,08,15.80
2009,06,25,19,09,15.80
2009,06,25,19,10,15.70
2009,06,25,19,11,15.70
2009,06,25,19,12,15.70
2009,06,25,19,13,15.70
2009,06,25,19,14,15.70
2009,06,25,19,15,15.70
2009,06,25,19,16,15.70
2009,06,25,19,17,15.70
2009,06,25,19,18,15.70
2009,06,25,19,19,15.70
2009,06,25,19,20,15.60
2009,06,25,19,21,15.60
2009,06,25,19,22,15.60
2009,06,25,19,23,15.60
2009,06,25,19,24,15.50
2009,06,25,19,25,15.40
2009,06,25,19,26,15.40
2009,06,25,19,27,15.40
2009,06,25,19,28,15.40
2009,06,25,19,29,15.30
2009,06,25,19,30,15.40
2009,06,25,19,31,15.40
2009,06,25,19,32,15.40
2009,06,25,19,33,15.30
2009,06,25,19,34,15.30
2009,06,25,19,35,15.20
2009,06,25,19,36,15.10
2009,06,25,19,37,15.00
2009,06,25,19,38,15.00
2009,06,25,19,39,15.00
2009,06,25,19,40,15.00
2009,06,25,19,41,15.00
2009,06,25,19,42,15.00
2009,06,25,19,43,15.00
2009,06,25,19,44,15.00
2009,06,25,19,45,15.00
2009,06,25,19,46,14.90
2009,06,25,19,47,14.90
2009,06,25,19,48,14.80
2009,06,25,19,49,14.70
2009,06,25,19,50,14.70
2009,06,25,19,51,14.60
2009,06,25,19,52,14.60
2009,06,25,19,53,14.60
2009,06,25,19,54,14.60
2009,06,25,19,55,14.60
2009,06,25,19,56,14.60
2009,06,25,19,57,14.60
2009,06,25,19,58,14.60
2009,06,25,19,59,14.60
2009,06,25,20,00,14.60
2009,06,25,20,01,14.50
2009,06,25,20,02,14.50
2009,06,25,20,03,14.40
2009,06,25,20,04,14.40
2009,06,25,20,05,14.40
2009,06,25,20,06,14.40
2009,06,25,20,07,14.30
2009,06,25,20,08,14.30
2009,06,25,20,09,14.30
2009,06,25,20,10,14.30
2009,06,25,20,11,14.20
2009,06,25,20,12,14.30
2009,06,25,20,13,14.30
2009,06,25,20,14,14.30
2009,06,25,20,15,14.20
2009,06,25,20,16,14.20
2009,06,25,20,17,14.20
2009,06,25,20,18,14.20
2009,06,25,20,19,14.20
2009,06,25,20,20,14.20
2009,06,25,20,21,14.10
2009,06,25,20,22,14.10
2009,06,25,20,23,14.10
2009,06,25,20,24,14.10
2009,06,25,20,25,14.10
2009,06,25,20,26,14.10
2009,06,25,20,27,14.10
2009,06,25,20,28,14.00
2009,06,25,20,29,14.00
2009,06,25,20,30,13.90
2009,06,25,20,31,13.90
2009,06,25,20,32,13.90
2009,06,25,20,33,13.90
2009,06,25,20,34,13.90
2009,06,25,20,35,13.80
2009,06,25,20,36,13.80
2009,06,25,20,37,13.80
2009,06,25,20,38,13.70
2009,06,25,20,39,13.70
2009,06,25,20,40,13.70
2009,06,25,20,41,13.60
2009,06,25,20,42,13.60
2009,06,25,20,43,13.60
2009,06,25,20,44,13.50
2009,06,25,20,45,13.50
2009,06,25,20,46,13.40
2009,06,25,20,47,13.40
2009,06,25,20,48,13.40
2009,06,25,20,49,13.30
2009,06,25,20,50,13.30
2009,06,25,20,51,13.30
2009,06,25,20,52,13.20
2009,06,25,20,53,13.20
2009,06,25,20,54,13.10
2009,06,25,20,55,13.10
2009,06,25,20,56,13.00
2009,06,25,20,57,12.90
2009,06,25,20,58,12.90
2009,06,25,20,59,12.80
2009,06,25,21,00,12.80
2009,06,25,21,01,12.80
2009,06,25,21,02,12.80
2009,06,25,21,03,12.80
2009,06,25,21,04,12.80
2009,06,25,21,05,12.80
2009,06,25,21,06,12.80
2009,06,25,21,07,12.80
2009,06,25,21,08,12.80
2009,06,25,21,09,12.80
2009,06,25,21,10,12.80
2009,06,25,21,11,12.80
2009,06,25,21,12,12.80
2009,06,25,21,13,12.80
2009,06,25,21,14,12.80
2009,06,25,21,15,12.80
